sat.trackr.live / text

‹ back to catalog

ONEWEB-0125

NORAD 47271 · 2020-100P

PAYLOAD ACTIVE UNKNOWN

§ Identity

Operator
Country
UK
Launch date
2020-12-18
Launch site
VOSTO
Launch vehicle
Mass (kg)
RCS (m²)

Purposes: comms

External: N2YO · Heavens-Above · Gunter

§ Orbital elements

Epoch: 2026-09-09T04:30:42.023232Z

Period
109.72 min
Inclination
87.8999°
Eccentricity
0.0002070
Mean motion
13.12442626 rev/d
Perigee alt
1,212.2 km
Apogee alt
1,215.3 km
Semi-major
7,591.9 km
B*
-9.3150e-4
RAAN
333.9810°
Arg perigee
107.9768°
Mean anomaly
252.1586°
Rev number
27,565

§ Raw data

ONEWEB-01251 47271U 20100P   26252.18798638 -.00000322  00000+0 -93150-3 0  99902 47271  87.8999 333.9810 0002070 107.9768 252.1586 13.12442626275652

JSON: /api/v1/satellites/47271 · /tle

For live sub-satellite position, see the globe view (requires WebGL).

§ Visibility from observer

Set your observer location to see the next 7 days of passes ≥ 10°. The values pass through the URL so the page stays shareable.

No JS? Fill the form by hand. The geolocation button needs JavaScript.